CSN332 EDDF-ZGGG

Flight info

Callsign CSN332
Flight time N/A
Altitude 33000
Route MARUN9S MARUN Y150 TOLGI DCT MAKEL DCT GESKA P605 MOSAT DCT EVONA P862 NETNA DCT TUKMA P989 MEGAS/K0885F330 P989 OBIBA P997 AKUGI T635 OKBOS/K0889F350 T635 SADER T580 ADMUR G117 XV R229 BA R104 ABK A308 TR/K0874F370 P982 DARNO/K0880S1130 Y746 NIXAL B208 SQ/K0880S1160 W45 LYA/K0880S1130 W45 ML/K0880S1160 W45 NUPTI/K0887S1190 W45 VESUX/K0887S1160 W45 IKAVO IKAVO8
Aircraft B77W/H-SDE1E2E3FGHIJ2J3J4J5M1RWXY/LB1D1

Departure

Time N/A
Airport Frankfurt Main Airport (EDDF)

Arrival

Time 2026-05-06 16:16
Airport Guangzhou Baiyun International Airport (ZGGG)
Time Latitude Longitude Altitude Speed Heading
2026-05-06 08:04 59.82707 32.42689 33010 ft 536 kts 73°
2026-05-06 08:04 59.83746 32.49691 33005 ft 535 kts 73°
2026-05-06 08:04 59.85841 32.63945 33007 ft 536 kts 73°
2026-05-06 08:05 59.87892 32.78149 33001 ft 537 kts 74°
2026-05-06 08:05 59.89920 32.92405 33003 ft 535 kts 74°
2026-05-06 08:06 59.91925 33.06661 33004 ft 536 kts 74°
2026-05-06 08:06 59.93413 33.21153 32999 ft 536 kts 87°
2026-05-06 08:07 59.93704 33.35999 33007 ft 535 kts 89°
2026-05-06 08:07 59.93906 33.50745 33009 ft 534 kts 90°
2026-05-06 08:08 59.94087 33.65547 33011 ft 534 kts 90°
2026-05-06 08:08 59.94248 33.80342 33006 ft 534 kts 90°
2026-05-06 08:09 59.94391 33.95088 33008 ft 534 kts 90°
2026-05-06 08:09 59.94517 34.09866 33010 ft 535 kts 90°
2026-05-06 08:10 59.94626 34.24729 33013 ft 533 kts 90°
2026-05-06 08:10 59.94718 34.39536 33015 ft 535 kts 90°
2026-05-06 08:11 59.94793 34.54235 33018 ft 534 kts 90°
2026-05-06 08:11 59.94852 34.69081 33017 ft 534 kts 91°
2026-05-06 08:12 59.94894 34.83857 33020 ft 534 kts 91°
2026-05-06 08:12 59.94919 34.98546 33021 ft 534 kts 91°
2026-05-06 08:13 59.94928 35.13377 33022 ft 534 kts 91°
2026-05-06 08:13 59.94950 35.28113 33016 ft 534 kts 88°
2026-05-06 08:14 59.96182 35.42777 33025 ft 535 kts 76°
2026-05-06 08:14 59.97883 35.57120 33023 ft 535 kts 76°
2026-05-06 08:15 59.99568 35.71558 33016 ft 535 kts 77°
2026-05-06 08:15 60.01235 35.86088 33017 ft 535 kts 77°
2026-05-06 08:16 60.02871 36.00541 33018 ft 535 kts 77°
2026-05-06 08:16 60.04495 36.15073 33019 ft 535 kts 77°
2026-05-06 08:17 60.06097 36.29582 33018 ft 536 kts 77°
2026-05-06 08:17 60.07682 36.44112 33019 ft 535 kts 77°
2026-05-06 08:18 60.09251 36.58646 33019 ft 535 kts 77°
2026-05-06 08:18 60.10807 36.73233 33009 ft 536 kts 78°
2026-05-06 08:19 60.12343 36.87776 33010 ft 535 kts 78°
2026-05-06 08:19 60.13864 37.02334 33010 ft 535 kts 78°
2026-05-06 08:20 60.15366 37.16870 33011 ft 535 kts 78°
2026-05-06 08:20 60.16862 37.31525 33012 ft 535 kts 78°
2026-05-06 08:21 60.18333 37.46108 33012 ft 536 kts 78°
2026-05-06 08:21 60.19796 37.60782 33012 ft 536 kts 78°
2026-05-06 08:22 60.21239 37.75421 33005 ft 535 kts 79°
2026-05-06 08:22 60.22663 37.90052 33007 ft 535 kts 79°
2026-05-06 08:23 60.24069 38.04682 33008 ft 535 kts 79°
2026-05-06 08:23 60.25464 38.19371 33012 ft 536 kts 79°
2026-05-06 08:24 60.26854 38.34061 33014 ft 535 kts 79°
2026-05-06 08:24 60.28231 38.48741 33018 ft 536 kts 79°
2026-05-06 08:25 60.29588 38.63395 33018 ft 536 kts 79°
2026-05-06 08:25 60.30939 38.78170 33008 ft 534 kts 80°
2026-05-06 08:26 60.32261 38.92828 33009 ft 536 kts 80°
2026-05-06 08:26 60.33576 39.07589 33009 ft 535 kts 80°
2026-05-06 08:27 60.34873 39.22360 33011 ft 535 kts 80°
2026-05-06 08:27 60.36147 39.37050 33014 ft 535 kts 80°
2026-05-06 08:28 60.37407 39.51790 33016 ft 535 kts 80°
2026-05-06 08:28 60.38650 39.66533 33017 ft 535 kts 81°
2026-05-06 08:29 60.39881 39.81323 33011 ft 534 kts 81°
2026-05-06 08:29 60.41093 39.96114 33013 ft 535 kts 81°
2026-05-06 08:30 60.42291 40.10932 33014 ft 535 kts 81°
2026-05-06 08:30 60.43475 40.25802 33015 ft 535 kts 81°
2026-05-06 08:31 60.44644 40.40697 33015 ft 535 kts 81°
2026-05-06 08:31 60.45787 40.55477 33016 ft 535 kts 81°
2026-05-06 08:32 60.46924 40.70403 33010 ft 535 kts 82°
2026-05-06 08:32 60.48038 40.85262 33012 ft 535 kts 82°
2026-05-06 08:33 60.49130 41.00063 33015 ft 535 kts 82°
2026-05-06 08:33 60.50195 41.15045 33016 ft 535 kts 82°
2026-05-06 08:34 60.51747 41.37402 33016 ft 535 kts 82°
2026-05-06 08:35 60.52759 41.52271 33018 ft 534 kts 82°
2026-05-06 08:35 60.53757 41.67186 33015 ft 536 kts 83°
2026-05-06 08:36 60.54739 41.82120 33009 ft 534 kts 83°
2026-05-06 08:36 60.55705 41.97073 33013 ft 534 kts 83°
2026-05-06 08:37 60.56652 42.11995 33017 ft 535 kts 83°
2026-05-06 08:37 60.57586 42.27009 33019 ft 535 kts 83°
2026-05-06 08:38 60.58495 42.41912 33019 ft 536 kts 83°
2026-05-06 08:38 60.59397 42.56974 33018 ft 535 kts 83°
2026-05-06 08:39 60.60272 42.71876 33009 ft 535 kts 84°
2026-05-06 08:39 60.61139 42.86940 33010 ft 535 kts 84°
2026-05-06 08:40 60.61982 43.01871 33012 ft 536 kts 84°
2026-05-06 08:40 60.62814 43.16920 33012 ft 535 kts 84°
2026-05-06 08:41 60.63628 43.31958 33011 ft 535 kts 84°
2026-05-06 08:41 60.64418 43.46882 33014 ft 535 kts 84°
2026-05-06 08:42 60.65197 43.61905 33015 ft 535 kts 84°
2026-05-06 08:42 60.65960 43.76944 33008 ft 535 kts 85°
2026-05-06 08:43 60.66717 43.92020 33011 ft 535 kts 85°
2026-05-06 08:43 60.67468 44.07095 33013 ft 536 kts 85°
2026-05-06 08:44 60.68196 44.22095 33014 ft 535 kts 85°
2026-05-06 08:44 60.68908 44.37105 33016 ft 535 kts 85°
2026-05-06 08:45 60.69607 44.52202 33017 ft 535 kts 85°
2026-05-06 08:45 60.70284 44.67191 33015 ft 534 kts 86°
2026-05-06 08:46 60.70948 44.82293 33012 ft 536 kts 86°
2026-05-06 08:46 60.71595 44.97413 33013 ft 534 kts 86°
2026-05-06 08:47 60.72222 45.12434 33014 ft 535 kts 86°
2026-05-06 08:47 60.72840 45.27564 33014 ft 535 kts 86°
2026-05-06 08:48 60.73438 45.42614 33015 ft 534 kts 86°
2026-05-06 08:48 60.74029 45.57768 33017 ft 535 kts 86°
2026-05-06 08:49 60.74601 45.72803 33011 ft 535 kts 87°
2026-05-06 08:49 60.75157 45.87879 33012 ft 534 kts 87°
2026-05-06 08:50 60.75699 46.03058 33013 ft 534 kts 87°
2026-05-06 08:50 60.76220 46.18120 33012 ft 534 kts 87°
2026-05-06 08:51 60.76726 46.33275 33011 ft 534 kts 87°
2026-05-06 08:51 60.77130 46.48386 33013 ft 534 kts 88°
2026-05-06 08:52 60.77507 46.63512 33016 ft 534 kts 88°
2026-05-06 08:52 60.77881 46.78593 33012 ft 534 kts 89°
2026-05-06 08:53 60.78243 46.93737 33014 ft 534 kts 89°
2026-05-06 08:53 60.78591 47.08947 33015 ft 533 kts 89°
2026-05-06 08:54 60.78919 47.24025 33015 ft 534 kts 89°
2026-05-06 08:54 60.79231 47.39183 33015 ft 534 kts 89°
2026-05-06 08:55 60.79527 47.54269 33016 ft 534 kts 89°
2026-05-06 08:55 60.79808 47.69467 33010 ft 533 kts 89°
2026-05-06 08:56 60.80070 47.84604 33012 ft 534 kts 90°
2026-05-06 08:56 60.80314 47.99663 33016 ft 534 kts 90°
2026-05-06 08:57 60.80542 48.14792 33017 ft 533 kts 90°
2026-05-06 08:57 60.80754 48.29994 33016 ft 534 kts 90°
2026-05-06 08:58 60.80952 48.45101 33019 ft 534 kts 89°
2026-05-06 08:58 60.81144 48.60296 33020 ft 535 kts 89°
2026-05-06 08:59 60.81318 48.75357 33013 ft 533 kts 90°
2026-05-06 08:59 60.81475 48.90577 33013 ft 534 kts 90°
2026-05-06 09:00 60.81615 49.05738 33014 ft 533 kts 90°
2026-05-06 09:00 60.81738 49.20897 33014 ft 533 kts 90°
2026-05-06 09:01 60.81843 49.35936 33016 ft 534 kts 90°
2026-05-06 09:01 60.81932 49.51133 33020 ft 533 kts 90°
2026-05-06 09:02 60.82004 49.66352 33022 ft 533 kts 91°
2026-05-06 09:02 60.82058 49.81387 33016 ft 533 kts 91°
2026-05-06 09:03 60.82098 49.96595 33016 ft 534 kts 91°
2026-05-06 09:03 60.82130 50.11757 33015 ft 533 kts 91°
2026-05-06 09:04 60.82145 50.26945 33013 ft 534 kts 91°
2026-05-06 09:04 60.82143 50.42079 33015 ft 534 kts 91°
2026-05-06 09:05 60.82124 50.57222 33018 ft 533 kts 91°
2026-05-06 09:05 60.82088 50.72396 33012 ft 533 kts 92°
2026-05-06 09:06 60.82035 50.87483 33014 ft 533 kts 92°
2026-05-06 09:06 60.81964 51.02656 33014 ft 534 kts 92°
2026-05-06 09:07 60.81876 51.17873 33016 ft 534 kts 92°
2026-05-06 09:07 60.81773 51.33012 33018 ft 532 kts 92°
2026-05-06 09:08 60.81668 51.48063 33019 ft 534 kts 92°
2026-05-06 09:08 60.81546 51.63327 33021 ft 533 kts 92°
2026-05-06 09:09 60.81407 51.78466 33016 ft 532 kts 93°
2026-05-06 09:09 60.81251 51.93528 33017 ft 533 kts 93°
2026-05-06 09:10 60.81077 52.08720 33019 ft 533 kts 93°
2026-05-06 09:10 60.80886 52.23818 33021 ft 534 kts 93°
2026-05-06 09:11 60.80679 52.38941 33022 ft 533 kts 93°
2026-05-06 09:11 60.80454 52.54084 33023 ft 533 kts 93°
2026-05-06 09:12 60.80213 52.69144 33017 ft 533 kts 94°
2026-05-06 09:12 60.79954 52.84265 33016 ft 532 kts 94°
2026-05-06 09:13 60.79679 52.99354 33015 ft 533 kts 94°
2026-05-06 09:13 60.79385 53.14555 33016 ft 533 kts 94°
2026-05-06 09:14 60.79075 53.29666 33019 ft 533 kts 94°
2026-05-06 09:14 60.78750 53.44678 33022 ft 533 kts 94°
2026-05-06 09:15 60.78407 53.59769 33025 ft 533 kts 94°
2026-05-06 09:15 60.78037 53.74909 33018 ft 532 kts 95°
2026-05-06 09:16 60.77646 53.89950 33016 ft 532 kts 95°
2026-05-06 09:16 60.77236 54.05093 33015 ft 532 kts 95°
2026-05-06 09:17 60.76812 54.20140 33021 ft 533 kts 95°
2026-05-06 09:17 60.76371 54.35219 33024 ft 532 kts 95°
2026-05-06 09:18 60.75914 54.50229 33025 ft 533 kts 95°
2026-05-06 09:18 60.75438 54.65337 33025 ft 532 kts 96°
2026-05-06 09:19 60.74948 54.80325 33017 ft 532 kts 96°
2026-05-06 09:19 60.74438 54.95425 33017 ft 533 kts 96°
2026-05-06 09:20 60.73914 55.10419 33016 ft 532 kts 96°
2026-05-06 09:20 60.73370 55.25515 33018 ft 532 kts 96°
2026-05-06 09:21 60.72810 55.40572 33018 ft 533 kts 96°
2026-05-06 09:21 60.72238 55.55507 33019 ft 533 kts 96°
2026-05-06 09:22 60.71645 55.70536 33012 ft 532 kts 97°
2026-05-06 09:22 60.71017 55.85555 33015 ft 531 kts 97°
2026-05-06 09:23 60.70368 56.00539 33015 ft 532 kts 97°
2026-05-06 09:23 60.69701 56.15597 33019 ft 532 kts 97°
2026-05-06 09:24 60.69022 56.30525 33021 ft 531 kts 97°
2026-05-06 09:24 60.68327 56.45449 33018 ft 532 kts 97°
2026-05-06 09:25 60.67610 56.60459 33018 ft 532 kts 97°
2026-05-06 09:25 60.66877 56.75476 33015 ft 531 kts 98°
2026-05-06 09:26 60.66134 56.90342 33019 ft 532 kts 98°
2026-05-06 09:26 60.65367 57.05341 33022 ft 532 kts 98°
2026-05-06 09:27 60.64591 57.20206 33023 ft 531 kts 98°
2026-05-06 09:27 60.63794 57.35126 33025 ft 531 kts 98°
2026-05-06 09:28 60.62981 57.50090 33023 ft 532 kts 98°
2026-05-06 09:28 60.62176 57.65014 33027 ft 531 kts 99°
2026-05-06 09:29 60.61355 57.79938 33024 ft 531 kts 99°
2026-05-06 09:29 60.60519 57.94826 33024 ft 531 kts 99°
2026-05-06 09:30 60.59667 58.09676 33026 ft 532 kts 99°
2026-05-06 09:30 60.58797 58.24551 33030 ft 531 kts 99°
2026-05-06 09:31 60.57912 58.39373 33034 ft 531 kts 99°
2026-05-06 09:31 60.57007 58.54254 33037 ft 531 kts 99°
2026-05-06 09:32 60.56091 58.69053 33029 ft 530 kts 100°
2026-05-06 09:32 60.55153 58.83916 33033 ft 531 kts 100°
2026-05-06 09:33 60.54200 58.98739 33050 ft 530 kts 100°
2026-05-06 09:33 60.53230 59.13574 33056 ft 531 kts 100°
2026-05-06 09:34 60.52245 59.28375 33051 ft 531 kts 100°
2026-05-06 09:34 60.51243 59.43191 33042 ft 531 kts 100°
2026-05-06 09:35 60.50225 59.57974 33033 ft 530 kts 100°
2026-05-06 09:35 60.49191 59.72746 33019 ft 529 kts 101°
2026-05-06 09:36 60.48145 59.87461 33017 ft 530 kts 101°
2026-05-06 09:36 60.47080 60.02182 33013 ft 530 kts 101°
2026-05-06 09:37 60.45997 60.16939 33016 ft 529 kts 101°
2026-05-06 09:37 60.44900 60.31636 33019 ft 530 kts 101°
2026-05-06 09:38 60.43791 60.46286 33014 ft 530 kts 101°
2026-05-06 09:38 60.42656 60.61046 33010 ft 529 kts 101°
2026-05-06 09:39 60.41513 60.75693 33003 ft 529 kts 102°
2026-05-06 09:39 60.40353 60.90339 33003 ft 530 kts 102°
2026-05-06 09:40 60.39176 61.04981 33004 ft 529 kts 102°
2026-05-06 09:40 60.37382 61.26912 33007 ft 529 kts 102°
2026-05-06 09:41 60.36165 61.41533 33009 ft 530 kts 102°
2026-05-06 09:41 60.34932 61.56137 33010 ft 529 kts 102°
2026-05-06 09:42 60.33681 61.70763 33003 ft 529 kts 103°
2026-05-06 09:42 60.32416 61.85346 33004 ft 528 kts 103°
2026-05-06 09:43 60.31136 61.99913 33005 ft 530 kts 103°
2026-05-06 09:43 60.29846 62.14428 33006 ft 528 kts 103°
2026-05-06 09:44 60.28558 62.28980 33007 ft 529 kts 103°
2026-05-06 09:44 60.27251 62.43563 33009 ft 528 kts 103°
2026-05-06 09:45 60.25925 62.58164 33011 ft 529 kts 103°
2026-05-06 09:45 60.24592 62.72655 33001 ft 529 kts 103°
2026-05-06 09:46 60.23246 62.87098 33002 ft 529 kts 103°
2026-05-06 09:46 60.21879 63.01588 33003 ft 529 kts 103°
2026-05-06 09:47 60.20497 63.16053 33005 ft 528 kts 104°
2026-05-06 09:47 60.19099 63.30564 33007 ft 529 kts 103°
2026-05-06 09:48 60.17688 63.45045 33008 ft 528 kts 103°
2026-05-06 09:48 60.16267 63.59445 33009 ft 528 kts 104°
2026-05-06 09:49 60.14820 63.73943 33003 ft 529 kts 104°
2026-05-06 09:49 60.13380 63.88280 32996 ft 529 kts 103°
2026-05-06 09:50 60.12865 64.03098 33003 ft 532 kts 93°
2026-05-06 09:50 60.12691 64.17847 33004 ft 533 kts 93°
2026-05-06 09:51 60.12497 64.32675 33004 ft 532 kts 93°
2026-05-06 09:51 60.12283 64.47472 33004 ft 532 kts 93°
2026-05-06 09:52 60.12053 64.62163 33007 ft 533 kts 93°
2026-05-06 09:52 60.11802 64.76984 33000 ft 532 kts 94°
2026-05-06 09:53 60.11411 64.91776 33004 ft 531 kts 97°
2026-05-06 09:53 60.10735 65.06479 33002 ft 531 kts 97°
2026-05-06 09:54 60.10053 65.21171 33003 ft 531 kts 97°
2026-05-06 09:54 60.09363 65.35892 33004 ft 532 kts 97°
2026-05-06 09:55 60.08665 65.50555 33005 ft 531 kts 97°
2026-05-06 09:55 60.07954 65.65221 33005 ft 531 kts 98°
2026-05-06 09:56 60.07229 65.79848 32998 ft 531 kts 98°
2026-05-06 09:56 60.06487 65.94517 33000 ft 531 kts 98°
2026-05-06 09:57 60.05731 66.09151 33001 ft 530 kts 98°
2026-05-06 09:57 60.04958 66.23793 33001 ft 530 kts 98°
2026-05-06 09:58 60.04170 66.38413 33002 ft 531 kts 98°
2026-05-06 09:58 60.03366 66.53027 33004 ft 531 kts 98°
2026-05-06 09:59 60.02539 66.67744 33001 ft 531 kts 99°
2026-05-06 09:59 60.01703 66.82225 32998 ft 530 kts 99°
2026-05-06 10:00 60.00840 66.96863 33000 ft 530 kts 99°
2026-05-06 10:00 59.99962 67.11472 33001 ft 531 kts 99°
2026-05-06 10:01 59.99072 67.26029 33001 ft 530 kts 99°
2026-05-06 10:01 59.98161 67.40638 33003 ft 531 kts 99°
2026-05-06 10:02 59.97238 67.55183 33004 ft 531 kts 99°
2026-05-06 10:02 59.96294 67.69804 32998 ft 530 kts 100°
2026-05-06 10:03 59.95342 67.84289 32998 ft 530 kts 100°
2026-05-06 10:03 59.94371 67.98804 32999 ft 530 kts 100°
2026-05-06 10:04 59.93383 68.13335 33000 ft 530 kts 100°
2026-05-06 10:04 59.92376 68.27898 33000 ft 530 kts 100°
2026-05-06 10:05 59.91357 68.42372 33001 ft 530 kts 100°
2026-05-06 10:05 59.90319 68.56820 33002 ft 531 kts 100°
2026-05-06 10:06 59.89265 68.71273 32999 ft 530 kts 101°
2026-05-06 10:06 59.88186 68.85832 33001 ft 530 kts 101°
2026-05-06 10:07 59.87097 69.00311 33002 ft 529 kts 101°
2026-05-06 10:07 59.85994 69.14758 33003 ft 529 kts 101°
2026-05-06 10:08 59.84880 69.29122 33004 ft 530 kts 101°
2026-05-06 10:08 59.83742 69.43594 33005 ft 530 kts 101°
2026-05-06 10:09 59.82578 69.58028 32999 ft 529 kts 103°
2026-05-06 10:09 59.80681 69.72036 32999 ft 526 kts 110°
2026-05-06 10:10 59.78623 69.85877 33001 ft 525 kts 110°
2026-05-06 10:10 59.76538 69.99773 33004 ft 526 kts 110°
2026-05-06 10:11 59.74439 70.13641 33005 ft 525 kts 110°
2026-05-06 10:11 59.72335 70.27431 33007 ft 526 kts 110°
2026-05-06 10:12 59.70215 70.41206 33008 ft 525 kts 110°
2026-05-06 10:12 59.68075 70.55003 33009 ft 525 kts 110°
2026-05-06 10:13 59.65928 70.68730 33003 ft 525 kts 111°
2026-05-06 10:13 59.63760 70.82484 33003 ft 525 kts 111°
2026-05-06 10:14 59.61592 70.96133 33004 ft 524 kts 111°
2026-05-06 10:14 59.59385 71.09917 33007 ft 526 kts 111°
2026-05-06 10:15 59.57185 71.23547 33009 ft 524 kts 111°
2026-05-06 10:15 59.54959 71.37237 33010 ft 525 kts 111°
2026-05-06 10:16 59.52719 71.50898 33011 ft 525 kts 111°
2026-05-06 10:16 59.50483 71.64439 33011 ft 525 kts 111°
2026-05-06 10:17 59.48220 71.78041 33004 ft 525 kts 112°
2026-05-06 10:17 59.45937 71.91657 33005 ft 524 kts 112°
2026-05-06 10:18 59.43652 72.05180 33007 ft 525 kts 112°
2026-05-06 10:18 59.41342 72.18752 33007 ft 524 kts 112°
2026-05-06 10:19 59.39031 72.32231 33009 ft 524 kts 112°
2026-05-06 10:19 59.36704 72.45706 33011 ft 524 kts 112°
2026-05-06 10:20 59.34347 72.59248 33012 ft 524 kts 112°
2026-05-06 10:20 59.31984 72.72731 33004 ft 523 kts 113°
2026-05-06 10:21 59.29616 72.86140 33004 ft 523 kts 113°
2026-05-06 10:21 59.27241 72.99496 33006 ft 523 kts 113°
2026-05-06 10:22 59.24846 73.12870 33007 ft 523 kts 113°
2026-05-06 10:22 59.22435 73.26232 33008 ft 523 kts 113°
2026-05-06 10:23 59.20006 73.39604 33008 ft 524 kts 113°
2026-05-06 10:23 59.17560 73.52976 33008 ft 524 kts 113°
2026-05-06 10:24 59.15103 73.66312 33007 ft 523 kts 114°
2026-05-06 10:24 59.12655 73.79508 33000 ft 523 kts 114°
2026-05-06 10:25 59.10176 73.92777 33001 ft 523 kts 114°
2026-05-06 10:25 59.07675 74.06083 33002 ft 523 kts 114°
2026-05-06 10:26 59.05194 74.19310 33004 ft 523 kts 114°
2026-05-06 10:26 59.02696 74.32536 33006 ft 524 kts 114°
2026-05-06 10:27 59.00188 74.45725 33007 ft 523 kts 114°
2026-05-06 10:27 58.97671 74.58866 33008 ft 522 kts 114°
2026-05-06 10:28 58.95131 74.72039 33002 ft 522 kts 115°
2026-05-06 10:28 58.92577 74.85192 33003 ft 523 kts 115°
2026-05-06 10:29 58.90017 74.98289 33004 ft 523 kts 115°
2026-05-06 10:29 58.87440 75.11389 33009 ft 522 kts 115°
2026-05-06 10:30 58.84849 75.24470 33011 ft 522 kts 115°
2026-05-06 10:30 58.82240 75.37560 33012 ft 522 kts 115°
2026-05-06 10:31 58.79628 75.50573 33013 ft 523 kts 115°
2026-05-06 10:31 58.76999 75.63590 33013 ft 522 kts 115°
2026-05-06 10:32 58.74365 75.76548 33006 ft 522 kts 115°
2026-05-06 10:32 58.71715 75.89496 33007 ft 522 kts 115°
2026-05-06 10:33 58.69043 76.02475 33009 ft 521 kts 115°
2026-05-06 10:33 58.66360 76.15419 33009 ft 522 kts 115°
2026-05-06 10:34 58.63684 76.28248 33009 ft 522 kts 116°
2026-05-06 10:34 58.60976 76.41150 33010 ft 523 kts 115°
2026-05-06 10:35 58.58154 76.53905 33012 ft 520 kts 119°
2026-05-06 10:35 58.55054 76.66301 33010 ft 519 kts 120°
2026-05-06 10:36 58.51915 76.78741 33006 ft 520 kts 120°
2026-05-06 10:36 58.48782 76.91095 33008 ft 518 kts 120°
2026-05-06 10:37 58.45634 77.03431 33009 ft 518 kts 120°
2026-05-06 10:37 58.42469 77.15768 33010 ft 519 kts 120°
2026-05-06 10:38 58.39303 77.28046 33010 ft 517 kts 120°
2026-05-06 10:38 58.36116 77.40330 33010 ft 518 kts 120°
2026-05-06 10:39 58.32917 77.52596 33011 ft 520 kts 120°
2026-05-06 10:39 58.29719 77.64794 33011 ft 519 kts 120°
2026-05-06 10:40 58.26500 77.77005 33004 ft 518 kts 121°
2026-05-06 10:40 58.23277 77.89163 33005 ft 518 kts 121°
2026-05-06 10:41 58.20032 78.01337 33007 ft 518 kts 121°
2026-05-06 10:41 58.16790 78.13437 33008 ft 518 kts 121°
2026-05-06 10:42 58.13517 78.25587 33010 ft 518 kts 121°
2026-05-06 10:42 58.10262 78.37608 33011 ft 518 kts 121°
2026-05-06 10:43 58.06980 78.49660 33012 ft 518 kts 121°
2026-05-06 10:44 58.02009 78.67798 33005 ft 517 kts 122°
2026-05-06 10:44 57.98716 78.79732 33001 ft 518 kts 122°
2026-05-06 10:45 57.95385 78.91743 33002 ft 517 kts 122°
2026-05-06 10:45 57.92052 79.03697 33005 ft 518 kts 122°
2026-05-06 10:46 57.88710 79.15626 33011 ft 517 kts 122°
2026-05-06 10:46 57.85368 79.27486 33012 ft 517 kts 122°
2026-05-06 10:47 57.81988 79.39420 33013 ft 518 kts 122°
2026-05-06 10:47 57.78624 79.51238 33014 ft 518 kts 122°
2026-05-06 10:48 57.75237 79.63077 33014 ft 517 kts 122°
2026-05-06 10:48 57.71843 79.74860 33006 ft 515 kts 123°
2026-05-06 10:49 57.68393 79.86605 33007 ft 516 kts 123°
2026-05-06 10:49 57.64948 79.98272 33008 ft 516 kts 123°
2026-05-06 10:50 57.61457 80.10040 33010 ft 516 kts 123°
2026-05-06 10:50 57.58004 80.21626 33012 ft 517 kts 123°
2026-05-06 10:51 57.54495 80.33344 33014 ft 516 kts 123°
2026-05-06 10:51 57.50998 80.44962 33014 ft 516 kts 123°
2026-05-06 10:52 57.47505 80.56513 33016 ft 517 kts 123°
2026-05-06 10:52 57.43983 80.68101 33009 ft 515 kts 124°
2026-05-06 10:53 57.40456 80.79648 33008 ft 517 kts 124°
2026-05-06 10:53 57.36911 80.91198 33008 ft 516 kts 124°
2026-05-06 10:54 57.33374 81.02664 33010 ft 515 kts 124°
2026-05-06 10:54 57.29812 81.14156 33010 ft 514 kts 124°
2026-05-06 10:55 57.26251 81.25588 33011 ft 515 kts 124°
2026-05-06 10:55 57.22677 81.37007 33012 ft 515 kts 124°
2026-05-06 10:56 57.19107 81.48360 33013 ft 515 kts 124°
2026-05-06 10:56 57.15500 81.59772 33014 ft 517 kts 124°
2026-05-06 10:57 57.11909 81.71084 33004 ft 514 kts 126°
2026-05-06 10:57 57.08301 81.82391 33004 ft 515 kts 125°
2026-05-06 10:58 57.04680 81.93689 33005 ft 514 kts 126°
2026-05-06 10:58 57.01031 82.05016 33005 ft 515 kts 126°
2026-05-06 10:59 56.97649 82.16591 33006 ft 518 kts 121°
2026-05-06 10:59 56.94416 82.28282 33008 ft 517 kts 121°
2026-05-06 11:00 56.91151 82.39960 33010 ft 518 kts 121°
2026-05-06 11:00 56.87847 82.51675 33014 ft 517 kts 121°
2026-05-06 11:01 56.84552 82.63274 33015 ft 517 kts 121°
2026-05-06 11:01 56.81249 82.74831 33007 ft 516 kts 122°
2026-05-06 11:02 56.77899 82.86482 33008 ft 518 kts 122°
2026-05-06 11:02 56.74582 82.97963 33008 ft 516 kts 122°
2026-05-06 11:03 56.71218 83.09541 33010 ft 517 kts 122°
2026-05-06 11:03 56.67854 83.21063 33010 ft 516 kts 122°
2026-05-06 11:04 56.64476 83.32574 33011 ft 517 kts 122°
2026-05-06 11:04 56.61107 83.43998 33012 ft 517 kts 122°
2026-05-06 11:05 56.57705 83.55479 33012 ft 516 kts 122°
2026-05-06 11:05 56.54296 83.66928 33010 ft 516 kts 123°
2026-05-06 11:06 56.50903 83.78265 33006 ft 517 kts 123°
2026-05-06 11:06 56.47481 83.89645 33006 ft 516 kts 123°
2026-05-06 11:07 56.44038 84.01041 33005 ft 515 kts 123°
2026-05-06 11:07 56.40607 84.12341 33007 ft 516 kts 123°
2026-05-06 11:08 56.37157 84.23651 33010 ft 516 kts 123°
2026-05-06 11:08 56.33691 84.34957 33011 ft 515 kts 123°
2026-05-06 11:09 56.30214 84.46244 33011 ft 515 kts 123°
2026-05-06 11:09 56.26740 84.57471 33011 ft 515 kts 123°
2026-05-06 11:10 56.23266 84.68645 33005 ft 515 kts 124°
2026-05-06 11:10 56.19746 84.79908 33006 ft 515 kts 124°
2026-05-06 11:11 56.16232 84.91103 33009 ft 515 kts 124°
2026-05-06 11:11 56.12714 85.02258 33012 ft 515 kts 124°
2026-05-06 11:12 56.09154 85.13487 33354 ft 524 kts 124°
2026-05-06 11:12 56.07383 85.19061 34042 ft 520 kts 124°
2026-05-06 11:12 56.05591 85.24688 34748 ft 516 kts 124°
2026-05-06 11:12 56.03812 85.30254 34997 ft 519 kts 124°
2026-05-06 11:13 56.02020 85.35850 35014 ft 519 kts 124°
2026-05-06 11:13 55.98382 85.47157 35022 ft 535 kts 124°
2026-05-06 11:14 55.94600 85.58846 35023 ft 545 kts 125°
2026-05-06 11:14 55.90723 85.70380 35014 ft 545 kts 126°
2026-05-06 11:15 55.86811 85.81930 35020 ft 546 kts 126°
2026-05-06 11:15 55.82897 85.93446 35020 ft 545 kts 126°
2026-05-06 11:16 55.78966 86.04959 35020 ft 544 kts 126°
2026-05-06 11:16 55.75024 86.16428 35023 ft 546 kts 126°
2026-05-06 11:17 55.71078 86.27851 35026 ft 546 kts 126°
2026-05-06 11:17 55.67111 86.39281 35027 ft 545 kts 126°
2026-05-06 11:18 55.63141 86.50668 35030 ft 545 kts 126°
2026-05-06 11:18 55.59139 86.62093 35032 ft 545 kts 126°
2026-05-06 11:19 55.55164 86.73389 35027 ft 544 kts 127°
2026-05-06 11:19 55.51158 86.84718 35029 ft 545 kts 127°
2026-05-06 11:20 55.47149 86.96006 35028 ft 544 kts 127°
2026-05-06 11:20 55.43136 87.07252 35031 ft 544 kts 127°
2026-05-06 11:21 55.39080 87.18565 35036 ft 545 kts 127°
2026-05-06 11:21 55.35042 87.29780 35039 ft 544 kts 127°
2026-05-06 11:22 55.30998 87.40958 35041 ft 544 kts 127°
2026-05-06 11:22 55.26953 87.52085 35045 ft 545 kts 127°
2026-05-06 11:23 55.22886 87.63229 35059 ft 544 kts 127°
2026-05-06 11:23 55.18811 87.74340 35064 ft 544 kts 128°
2026-05-06 11:24 55.14700 87.85486 35062 ft 543 kts 128°
2026-05-06 11:24 55.10605 87.96513 35057 ft 544 kts 128°
2026-05-06 11:25 55.06501 88.07519 35053 ft 543 kts 128°
2026-05-06 11:25 55.02365 88.18559 35050 ft 543 kts 128°
2026-05-06 11:26 54.98250 88.29496 35052 ft 544 kts 128°
2026-05-06 11:26 54.94087 88.40513 35068 ft 543 kts 128°
2026-05-06 11:27 54.89931 88.51461 35077 ft 544 kts 128°
2026-05-06 11:27 54.85767 88.62382 35086 ft 543 kts 128°
2026-05-06 11:28 54.81609 88.73239 35084 ft 542 kts 129°
2026-05-06 11:28 54.77440 88.84105 35085 ft 543 kts 129°
2026-05-06 11:29 54.73257 88.94966 35080 ft 542 kts 129°
2026-05-06 11:29 54.69053 89.05832 35075 ft 543 kts 129°
2026-05-06 11:30 54.64856 89.16634 35067 ft 542 kts 129°
2026-05-06 11:30 54.60640 89.27434 35059 ft 542 kts 129°
2026-05-06 11:31 54.56423 89.38193 35065 ft 543 kts 129°
2026-05-06 11:31 54.52190 89.48945 35073 ft 542 kts 129°
2026-05-06 11:32 54.47968 89.59624 35075 ft 543 kts 129°
2026-05-06 11:32 54.43712 89.70341 35063 ft 542 kts 129°
2026-05-06 11:33 54.39467 89.80985 35060 ft 542 kts 129°
2026-05-06 11:33 54.35191 89.91662 35063 ft 543 kts 129°
2026-05-06 11:34 54.30928 90.02259 35066 ft 542 kts 129°
2026-05-06 11:34 54.26651 90.12846 35066 ft 542 kts 129°
2026-05-06 11:35 54.22343 90.23467 35065 ft 542 kts 130°
2026-05-06 11:35 54.18044 90.34019 35063 ft 542 kts 129°
2026-05-06 11:36 54.13732 90.44557 35064 ft 542 kts 129°
2026-05-06 11:36 54.09431 90.55028 35068 ft 542 kts 129°
2026-05-06 11:37 54.05106 90.65512 35071 ft 541 kts 130°
2026-05-06 11:37 54.00787 90.75937 35062 ft 540 kts 130°
2026-05-06 11:38 53.96443 90.86377 35058 ft 541 kts 130°
2026-05-06 11:38 53.92083 90.96815 35051 ft 541 kts 130°
2026-05-06 11:39 53.87736 91.07175 35047 ft 541 kts 130°
2026-05-06 11:39 53.83364 91.17554 35040 ft 541 kts 130°
2026-05-06 11:40 53.78987 91.27902 35033 ft 543 kts 130°
2026-05-06 11:40 53.74547 91.38142 35135 ft 541 kts 135°
2026-05-06 11:40 53.72092 91.42886 35502 ft 537 kts 137°
2026-05-06 11:41 53.69605 91.47556 35953 ft 534 kts 137°
2026-05-06 11:41 53.67158 91.52132 36420 ft 530 kts 137°
2026-05-06 11:41 53.64695 91.56722 36771 ft 529 kts 137°
2026-05-06 11:41 53.62237 91.61289 37014 ft 529 kts 137°
2026-05-06 11:42 53.59764 91.65871 37030 ft 529 kts 138°
2026-05-06 11:42 53.54800 91.75044 37022 ft 529 kts 138°
2026-05-06 11:43 53.49856 91.84128 37024 ft 530 kts 139°
2026-05-06 11:43 53.44849 91.93169 37027 ft 529 kts 139°
2026-05-06 11:44 53.37333 92.06624 37026 ft 528 kts 141°
2026-05-06 11:44 53.31981 92.14974 37034 ft 525 kts 143°
2026-05-06 11:45 53.26624 92.23224 37035 ft 525 kts 143°
2026-05-06 11:45 53.21261 92.31493 37037 ft 526 kts 143°
2026-05-06 11:46 53.15897 92.39756 37045 ft 526 kts 142°
2026-05-06 11:46 53.10546 92.47986 37057 ft 525 kts 143°
2026-05-06 11:47 53.05172 92.56228 37069 ft 525 kts 143°
2026-05-06 11:47 52.99811 92.64425 37080 ft 525 kts 142°
2026-05-06 11:48 52.94423 92.72636 37077 ft 525 kts 143°
2026-05-06 11:48 52.89071 92.80765 37082 ft 524 kts 143°
2026-05-06 11:49 52.83704 92.88888 37089 ft 526 kts 143°
2026-05-06 11:49 52.78300 92.97042 37095 ft 525 kts 143°
2026-05-06 11:50 52.72931 93.05113 37108 ft 525 kts 143°
2026-05-06 11:50 52.67541 93.13189 37119 ft 524 kts 143°
2026-05-06 11:51 52.62122 93.21278 37125 ft 526 kts 143°
2026-05-06 11:51 52.56710 93.29330 37122 ft 524 kts 143°
2026-05-06 11:52 52.51294 93.37359 37114 ft 525 kts 143°
2026-05-06 11:52 52.45890 93.45343 37104 ft 524 kts 143°
2026-05-06 11:53 52.40460 93.53337 37098 ft 525 kts 143°
2026-05-06 11:53 52.35033 93.61301 37101 ft 524 kts 143°
2026-05-06 11:54 52.29629 93.69203 37094 ft 524 kts 144°
2026-05-06 11:54 52.24216 93.77091 37098 ft 525 kts 144°
2026-05-06 11:55 52.18789 93.84972 37097 ft 525 kts 144°
2026-05-06 11:55 52.13785 93.93668 37090 ft 535 kts 130°
2026-05-06 11:56 52.09817 94.04003 37093 ft 539 kts 126°
2026-05-06 11:56 52.05913 94.14441 37093 ft 540 kts 126°
2026-05-06 11:57 52.02006 94.24809 37092 ft 539 kts 126°
2026-05-06 11:57 51.98071 94.35181 37084 ft 540 kts 126°
2026-05-06 11:58 51.94126 94.45528 37077 ft 539 kts 126°
2026-05-06 11:58 51.90175 94.55840 37078 ft 540 kts 126°
2026-05-06 11:59 51.86219 94.66120 37096 ft 539 kts 127°
2026-05-06 11:59 51.82268 94.76342 37102 ft 538 kts 127°
2026-05-06 12:00 51.78292 94.86584 37107 ft 538 kts 127°
2026-05-06 12:00 51.74316 94.96790 37113 ft 538 kts 127°
2026-05-06 12:01 51.70321 95.06999 37113 ft 539 kts 127°
2026-05-06 12:01 51.66333 95.17151 37109 ft 539 kts 127°
2026-05-06 12:02 51.62347 95.27258 37103 ft 539 kts 127°
2026-05-06 12:02 51.58321 95.37427 37093 ft 538 kts 127°
2026-05-06 12:03 51.54393 95.47306 37082 ft 539 kts 127°
2026-05-06 12:03 51.50349 95.57442 37077 ft 538 kts 127°
2026-05-06 12:04 51.46307 95.67531 37080 ft 538 kts 128°
2026-05-06 12:04 51.42278 95.77550 37092 ft 539 kts 128°
2026-05-06 12:05 51.38214 95.87614 37098 ft 537 kts 128°
2026-05-06 12:05 51.34147 95.97648 37101 ft 538 kts 128°
2026-05-06 12:06 51.30063 96.07685 37099 ft 538 kts 128°
2026-05-06 12:06 51.25991 96.17653 37095 ft 538 kts 128°
2026-05-06 12:07 51.21907 96.27614 37093 ft 538 kts 128°
2026-05-06 12:07 51.17812 96.37562 37109 ft 538 kts 128°
2026-05-06 12:08 51.13698 96.47518 37120 ft 538 kts 128°
2026-05-06 12:08 51.09587 96.57427 37125 ft 537 kts 128°
2026-05-06 12:09 51.05471 96.67316 37125 ft 537 kts 129°
2026-05-06 12:09 51.01347 96.77181 37130 ft 538 kts 129°
2026-05-06 12:10 50.97219 96.87022 37118 ft 537 kts 129°
2026-05-06 12:10 50.93090 96.96825 37108 ft 538 kts 129°
2026-05-06 12:11 50.88922 97.06683 37110 ft 538 kts 129°
2026-05-06 12:11 50.84768 97.16474 37125 ft 537 kts 129°
2026-05-06 12:12 50.80606 97.26245 37139 ft 538 kts 129°
2026-05-06 12:12 50.76437 97.35997 37149 ft 537 kts 129°
2026-05-06 12:13 50.72222 97.45818 37157 ft 538 kts 129°
2026-05-06 12:13 50.68021 97.55571 37160 ft 538 kts 129°
2026-05-06 12:14 50.63830 97.65266 37152 ft 537 kts 129°
2026-05-06 12:14 50.59611 97.74990 37140 ft 537 kts 130°
2026-05-06 12:15 50.55411 97.84632 37150 ft 536 kts 130°
2026-05-06 12:15 50.51217 97.94227 37167 ft 537 kts 129°
2026-05-06 12:16 50.46983 98.03878 37177 ft 537 kts 129°
2026-05-06 12:16 50.42749 98.13493 37173 ft 537 kts 129°
2026-05-06 12:17 50.38503 98.23100 37173 ft 537 kts 129°
2026-05-06 12:17 50.34271 98.32638 37177 ft 537 kts 130°
2026-05-06 12:18 50.29984 98.42237 37178 ft 537 kts 130°
2026-05-06 12:18 50.25701 98.51792 37174 ft 537 kts 130°
2026-05-06 12:19 50.21419 98.61310 37168 ft 537 kts 129°
2026-05-06 12:19 50.17147 98.70776 37152 ft 536 kts 130°
2026-05-06 12:20 50.12865 98.80226 37150 ft 537 kts 130°
2026-05-06 12:20 50.08577 98.89657 37156 ft 537 kts 130°
2026-05-06 12:21 50.04257 98.99123 37161 ft 536 kts 130°
2026-05-06 12:21 49.99945 99.08540 37161 ft 535 kts 130°
2026-05-06 12:22 49.95617 99.17958 37160 ft 536 kts 130°
2026-05-06 12:22 49.91289 99.27342 37157 ft 535 kts 130°
2026-05-06 12:23 49.86969 99.36678 37161 ft 536 kts 130°
2026-05-06 12:23 49.82611 99.46061 37160 ft 535 kts 130°
2026-05-06 12:24 49.78359 99.55183 37158 ft 537 kts 130°
2026-05-06 12:24 49.73994 99.64516 37149 ft 536 kts 130°
2026-05-06 12:25 49.69651 99.73770 37137 ft 535 kts 131°
2026-05-06 12:25 49.65265 99.83079 37143 ft 535 kts 131°
2026-05-06 12:26 49.60889 99.92339 37152 ft 535 kts 131°
2026-05-06 12:26 49.56500 100.01593 37160 ft 536 kts 131°
2026-05-06 12:27 49.52090 100.10858 37157 ft 536 kts 131°
2026-05-06 12:27 49.47690 100.20072 37147 ft 536 kts 131°
2026-05-06 12:28 49.43285 100.29263 37138 ft 536 kts 131°
2026-05-06 12:28 49.38873 100.38438 37138 ft 535 kts 131°
2026-05-06 12:29 49.34456 100.47591 37140 ft 536 kts 131°
2026-05-06 12:29 49.30145 100.56496 37143 ft 536 kts 131°
2026-05-06 12:30 49.25695 100.65653 37133 ft 535 kts 132°
2026-05-06 12:30 49.21256 100.74762 37112 ft 535 kts 132°
2026-05-06 12:31 49.16820 100.83830 37111 ft 534 kts 132°
2026-05-06 12:31 49.12371 100.92895 37119 ft 535 kts 132°
2026-05-06 12:32 49.07916 101.01941 37128 ft 534 kts 132°
2026-05-06 12:32 49.03447 101.10983 37140 ft 535 kts 132°
2026-05-06 12:33 48.98959 101.20036 37149 ft 534 kts 132°
2026-05-06 12:33 48.94471 101.29057 37149 ft 535 kts 132°
2026-05-06 12:34 48.89999 101.38016 37141 ft 535 kts 132°
2026-05-06 12:34 48.85496 101.47006 37139 ft 536 kts 132°
2026-05-06 12:35 48.80983 101.55986 37136 ft 535 kts 132°
2026-05-06 12:35 48.76474 101.64931 37138 ft 534 kts 132°
2026-05-06 12:36 48.71974 101.73825 37129 ft 535 kts 133°
2026-05-06 12:36 48.67436 101.82763 37128 ft 534 kts 133°
2026-05-06 12:37 48.62933 101.91604 37124 ft 533 kts 133°
2026-05-06 12:37 48.58382 102.00508 37122 ft 535 kts 133°
2026-05-06 12:38 48.53851 102.09345 37126 ft 535 kts 133°
2026-05-06 12:38 48.49299 102.18193 37132 ft 535 kts 133°
2026-05-06 12:39 48.44750 102.27007 37140 ft 534 kts 133°
2026-05-06 12:39 48.40203 102.35788 37137 ft 533 kts 133°
2026-05-06 12:40 48.35621 102.44608 37134 ft 535 kts 133°
2026-05-06 12:40 48.31050 102.53378 37134 ft 535 kts 133°
2026-05-06 12:41 48.26455 102.62166 37138 ft 534 kts 133°
2026-05-06 12:41 48.21875 102.70898 37132 ft 532 kts 134°
2026-05-06 12:42 48.17299 102.79591 37131 ft 534 kts 134°
2026-05-06 12:42 48.12696 102.88309 37131 ft 533 kts 134°
2026-05-06 12:43 48.08099 102.96989 37134 ft 533 kts 134°
2026-05-06 12:43 48.03494 103.05654 37140 ft 532 kts 134°
2026-05-06 12:44 47.98874 103.14320 37140 ft 533 kts 134°
2026-05-06 12:44 47.94286 103.22899 37135 ft 533 kts 134°
2026-05-06 12:45 47.89655 103.31530 37134 ft 534 kts 134°
2026-05-06 12:46 47.82698 103.44441 37126 ft 534 kts 134°
2026-05-06 12:46 47.78074 103.52991 37112 ft 533 kts 134°
2026-05-06 12:47 47.73407 103.61590 37111 ft 533 kts 134°
2026-05-06 12:47 47.68762 103.70123 37110 ft 532 kts 134°
2026-05-06 12:48 47.64112 103.78637 37117 ft 534 kts 134°
2026-05-06 12:48 47.59475 103.87103 37114 ft 534 kts 135°
2026-05-06 12:49 47.54787 103.95634 37110 ft 532 kts 134°
2026-05-06 12:49 47.50114 104.04110 37107 ft 532 kts 134°
2026-05-06 12:50 47.45444 104.12556 37110 ft 532 kts 134°
2026-05-06 12:50 47.40741 104.21034 37116 ft 533 kts 134°
2026-05-06 12:51 47.36056 104.29456 37119 ft 533 kts 134°
2026-05-06 12:51 47.31347 104.37893 37121 ft 532 kts 134°
2026-05-06 12:52 47.26663 104.46259 37121 ft 533 kts 134°
2026-05-06 12:52 47.21944 104.54663 37123 ft 532 kts 134°
2026-05-06 12:53 47.17225 104.63041 37129 ft 532 kts 134°
2026-05-06 12:53 47.12477 104.71443 37120 ft 532 kts 135°
2026-05-06 12:54 47.07762 104.79764 37116 ft 531 kts 135°
2026-05-06 12:54 47.03046 104.88058 37116 ft 533 kts 135°
2026-05-06 12:55 46.98299 104.96384 37119 ft 532 kts 135°
2026-05-06 12:55 46.93538 105.04710 37121 ft 532 kts 135°
2026-05-06 12:56 46.88819 105.12936 37126 ft 532 kts 135°
2026-05-06 12:56 46.84062 105.21201 37128 ft 531 kts 135°
2026-05-06 12:57 46.79296 105.29459 37132 ft 532 kts 135°
2026-05-06 12:57 46.74548 105.37662 37134 ft 532 kts 135°
2026-05-06 12:58 46.69747 105.45929 37134 ft 532 kts 135°
2026-05-06 12:58 46.64975 105.54123 37134 ft 533 kts 135°
2026-05-06 12:59 46.60202 105.62294 37134 ft 532 kts 135°
2026-05-06 12:59 46.55436 105.70428 37127 ft 532 kts 136°
2026-05-06 13:00 46.50644 105.78584 37131 ft 532 kts 136°
2026-05-06 13:00 46.45854 105.86712 37129 ft 532 kts 136°
2026-05-06 13:01 46.41052 105.94834 37126 ft 531 kts 136°
2026-05-06 13:01 46.36234 106.02958 37126 ft 532 kts 136°
2026-05-06 13:02 46.31441 106.11018 37126 ft 530 kts 136°
2026-05-06 13:02 46.26615 106.19107 37125 ft 532 kts 136°
2026-05-06 13:03 46.21792 106.27169 37125 ft 532 kts 136°
2026-05-06 13:03 46.16963 106.35217 37125 ft 532 kts 136°
2026-05-06 13:04 46.12122 106.43262 37125 ft 532 kts 136°
2026-05-06 13:04 46.07269 106.51302 37124 ft 532 kts 136°
2026-05-06 13:05 46.02442 106.59276 37124 ft 532 kts 136°
2026-05-06 13:05 45.97593 106.67265 37116 ft 531 kts 137°
2026-05-06 13:06 45.92759 106.75207 37113 ft 530 kts 137°
2026-05-06 13:06 45.87904 106.83157 37118 ft 531 kts 137°
2026-05-06 13:07 45.83047 106.91091 37118 ft 530 kts 137°
2026-05-06 13:07 45.78182 106.99015 37117 ft 531 kts 137°
2026-05-06 13:08 45.73299 107.06947 37118 ft 531 kts 137°
2026-05-06 13:08 45.68427 107.14841 37119 ft 530 kts 137°
2026-05-06 13:09 45.63524 107.22759 37117 ft 531 kts 137°
2026-05-06 13:09 45.58644 107.30617 37114 ft 532 kts 137°
2026-05-06 13:10 45.53733 107.38502 37108 ft 531 kts 137°
2026-05-06 13:10 45.48851 107.46322 37106 ft 531 kts 137°
2026-05-06 13:11 45.43929 107.54180 37107 ft 531 kts 137°
2026-05-06 13:11 45.39024 107.61990 37108 ft 531 kts 137°
2026-05-06 13:12 45.34110 107.69793 37096 ft 530 kts 137°
2026-05-06 13:12 45.29185 107.77591 37094 ft 530 kts 137°
2026-05-06 13:13 45.24257 107.85371 37094 ft 530 kts 137°
2026-05-06 13:13 45.19343 107.93109 37095 ft 529 kts 137°
2026-05-06 13:14 45.14434 108.00816 37096 ft 529 kts 137°
2026-05-06 13:14 45.09481 108.08571 37096 ft 530 kts 137°
2026-05-06 13:15 45.04547 108.16274 37095 ft 530 kts 137°
2026-05-06 13:15 44.99598 108.23979 37094 ft 530 kts 137°
2026-05-06 13:16 44.94673 108.31627 37095 ft 529 kts 137°
2026-05-06 13:16 44.89691 108.39341 37097 ft 530 kts 137°
2026-05-06 13:17 44.84732 108.46994 37105 ft 530 kts 137°
2026-05-06 13:17 44.79774 108.54623 37108 ft 531 kts 137°
2026-05-06 13:18 44.74820 108.62227 37109 ft 530 kts 137°
2026-05-06 13:18 44.69819 108.69884 37099 ft 528 kts 138°
2026-05-06 13:19 44.64862 108.77449 37097 ft 529 kts 138°
2026-05-06 13:19 44.59879 108.85034 37097 ft 529 kts 138°
2026-05-06 13:20 44.54895 108.92602 37096 ft 529 kts 138°
2026-05-06 13:20 44.49903 109.00157 37094 ft 530 kts 138°
2026-05-06 13:21 44.44910 109.07697 37090 ft 530 kts 138°
2026-05-06 13:21 44.39901 109.15240 37087 ft 530 kts 138°
2026-05-06 13:22 44.34898 109.22755 37083 ft 530 kts 138°
2026-05-06 13:22 44.29871 109.30284 37080 ft 531 kts 138°
2026-05-06 13:23 44.24824 109.37823 37077 ft 530 kts 138°
2026-05-06 13:23 44.19928 109.45116 37077 ft 530 kts 138°
2026-05-06 13:24 44.14886 109.52608 37079 ft 529 kts 138°
2026-05-06 13:24 44.09855 109.60064 37080 ft 529 kts 138°
2026-05-06 13:25 44.04845 109.67467 37071 ft 530 kts 139°
2026-05-06 13:25 43.99784 109.74929 37070 ft 529 kts 139°
2026-05-06 13:26 43.94740 109.82344 37074 ft 529 kts 139°
2026-05-06 13:26 43.89704 109.89728 37081 ft 530 kts 139°
2026-05-06 13:27 43.84642 109.97130 37092 ft 529 kts 139°
2026-05-06 13:27 43.79610 110.04469 37096 ft 529 kts 139°
2026-05-06 13:28 43.74521 110.11872 37098 ft 528 kts 139°
2026-05-06 13:28 43.69494 110.19166 37097 ft 528 kts 139°
2026-05-06 13:29 43.64415 110.26514 37096 ft 529 kts 139°
2026-05-06 13:29 43.59333 110.33850 37097 ft 530 kts 139°
2026-05-06 13:30 43.54224 110.41205 37099 ft 529 kts 139°
2026-05-06 13:30 43.49145 110.48497 37102 ft 529 kts 139°
2026-05-06 13:31 43.44067 110.55769 37105 ft 530 kts 139°
2026-05-06 13:31 43.38976 110.63042 37105 ft 529 kts 139°
2026-05-06 13:32 43.34259 110.69762 37095 ft 529 kts 140°
2026-05-06 13:32 43.29167 110.77000 37094 ft 528 kts 140°
2026-05-06 13:33 43.23943 110.84022 37093 ft 521 kts 147°
2026-05-06 13:33 43.17803 110.88985 37091 ft 504 kts 165°
2026-05-06 13:34 43.11252 110.92146 37093 ft 501 kts 168°
2026-05-06 13:34 43.04625 110.95122 37093 ft 501 kts 168°
2026-05-06 13:35 42.97993 110.98016 37091 ft 502 kts 169°
2026-05-06 13:35 42.91347 111.00866 37089 ft 501 kts 169°
2026-05-06 13:36 42.84684 111.03693 37092 ft 501 kts 169°
2026-05-06 13:36 42.78034 111.06496 37089 ft 500 kts 169°
2026-05-06 13:37 42.71396 111.09280 37089 ft 501 kts 169°
2026-05-06 13:37 42.64787 111.12042 37090 ft 500 kts 169°
2026-05-06 13:38 42.58114 111.14822 37093 ft 500 kts 169°
2026-05-06 13:38 42.51475 111.17580 37094 ft 501 kts 169°
2026-05-06 13:39 42.44818 111.20338 37096 ft 501 kts 169°
2026-05-06 13:39 42.38165 111.23089 37098 ft 501 kts 169°
2026-05-06 13:40 42.31501 111.25838 37100 ft 501 kts 169°
2026-05-06 13:40 42.24820 111.28588 37103 ft 500 kts 169°
2026-05-06 13:41 42.18189 111.31313 37107 ft 501 kts 169°
2026-05-06 13:41 42.11494 111.34072 37111 ft 500 kts 169°
2026-05-06 13:42 42.04829 111.36813 37113 ft 500 kts 169°
2026-05-06 13:42 41.98161 111.39548 37116 ft 500 kts 169°
2026-05-06 13:43 41.91530 111.42262 37119 ft 500 kts 169°
2026-05-06 13:43 41.84905 111.44968 37125 ft 499 kts 169°
2026-05-06 13:44 41.78220 111.47691 37126 ft 501 kts 169°
2026-05-06 13:44 41.71561 111.50400 37127 ft 500 kts 169°
2026-05-06 13:45 41.64885 111.53108 37129 ft 501 kts 169°
2026-05-06 13:45 41.54924 111.57138 37133 ft 501 kts 169°
2026-05-06 13:46 41.48241 111.59835 37136 ft 501 kts 169°
2026-05-06 13:46 41.41550 111.62530 37141 ft 500 kts 169°
2026-05-06 13:47 41.34919 111.65194 37145 ft 501 kts 170°
2026-05-06 13:47 41.28285 111.67854 37139 ft 499 kts 170°
2026-05-06 13:48 41.21615 111.70523 37144 ft 499 kts 170°
2026-05-06 13:48 41.14990 111.73168 37143 ft 499 kts 170°
2026-05-06 13:49 41.08345 111.75815 37141 ft 499 kts 170°
2026-05-06 13:49 41.01665 111.78471 37139 ft 499 kts 170°
2026-05-06 13:50 40.94994 111.81117 37132 ft 499 kts 170°
2026-05-06 13:50 40.88349 111.83747 37124 ft 500 kts 170°
2026-05-06 13:51 40.81672 111.86385 37114 ft 500 kts 169°
2026-05-06 13:51 40.75012 111.89011 37102 ft 499 kts 169°
2026-05-06 13:52 40.68354 111.91375 37104 ft 495 kts 174°
2026-05-06 13:52 40.61607 111.93263 37101 ft 496 kts 175°
2026-05-06 13:53 40.54842 111.94758 37105 ft 491 kts 177°
2026-05-06 13:53 40.48073 111.96201 37107 ft 493 kts 177°
2026-05-06 13:54 40.41282 111.97675 37108 ft 493 kts 177°
2026-05-06 13:54 40.34557 111.99245 37107 ft 493 kts 175°
2026-05-06 13:55 40.27796 112.00914 37105 ft 493 kts 175°
2026-05-06 13:55 40.21075 112.02569 37107 ft 493 kts 175°
2026-05-06 13:56 40.14313 112.04236 37116 ft 495 kts 175°
2026-05-06 13:56 40.07537 112.05905 37124 ft 494 kts 175°
2026-05-06 13:57 40.00828 112.07553 37130 ft 495 kts 175°
2026-05-06 13:57 39.94033 112.09216 37132 ft 493 kts 175°
2026-05-06 13:58 39.87313 112.10854 37139 ft 493 kts 176°
2026-05-06 13:58 39.80543 112.12500 37140 ft 494 kts 175°
2026-05-06 13:59 39.73811 112.14134 37141 ft 493 kts 175°
2026-05-06 13:59 39.67035 112.15777 37140 ft 493 kts 175°
2026-05-06 14:00 39.60318 112.17400 37137 ft 494 kts 175°
2026-05-06 14:00 39.53564 112.19031 37134 ft 493 kts 175°
2026-05-06 14:01 39.46803 112.20666 37130 ft 493 kts 175°
2026-05-06 14:01 39.40080 112.22323 37127 ft 494 kts 175°
2026-05-06 14:02 39.33321 112.23987 37123 ft 494 kts 175°
2026-05-06 14:02 39.26574 112.25643 37121 ft 494 kts 175°
2026-05-06 14:03 39.19790 112.27305 37120 ft 493 kts 175°
2026-05-06 14:03 39.13041 112.28954 37124 ft 494 kts 175°
2026-05-06 14:04 39.06269 112.30605 37129 ft 494 kts 175°
2026-05-06 14:04 38.99520 112.32248 37133 ft 495 kts 175°
2026-05-06 14:05 38.92731 112.33897 37136 ft 495 kts 175°
2026-05-06 14:05 38.85978 112.35535 37144 ft 495 kts 175°
2026-05-06 14:06 38.79198 112.37175 37147 ft 495 kts 175°
2026-05-06 14:06 38.72446 112.38806 37149 ft 493 kts 175°
2026-05-06 14:07 38.65691 112.40434 37142 ft 494 kts 175°
2026-05-06 14:07 38.58936 112.42059 37134 ft 493 kts 175°
2026-05-06 14:08 38.52140 112.43690 37125 ft 494 kts 175°
2026-05-06 14:08 38.45425 112.45300 37118 ft 494 kts 175°
2026-05-06 14:09 38.38668 112.46900 37114 ft 495 kts 175°
2026-05-06 14:09 38.31885 112.48502 37112 ft 494 kts 175°
2026-05-06 14:10 38.25143 112.50091 37109 ft 493 kts 175°
2026-05-06 14:10 38.18374 112.51683 37103 ft 495 kts 175°
2026-05-06 14:11 38.11572 112.53281 37097 ft 495 kts 175°
2026-05-06 14:11 38.04840 112.54859 37091 ft 494 kts 175°
2026-05-06 14:12 37.98080 112.56441 37086 ft 494 kts 175°
2026-05-06 14:12 37.91314 112.58021 37085 ft 494 kts 175°
2026-05-06 14:13 37.84562 112.59603 37088 ft 494 kts 175°
2026-05-06 14:13 37.77785 112.61217 37086 ft 494 kts 175°
2026-05-06 14:14 37.71052 112.63033 37089 ft 499 kts 171°
2026-05-06 14:14 37.64324 112.65346 37078 ft 498 kts 171°
2026-05-06 14:15 37.57663 112.67616 37070 ft 498 kts 171°
2026-05-06 14:15 37.50946 112.69888 37070 ft 497 kts 172°
2026-05-06 14:16 37.44268 112.72129 37076 ft 498 kts 172°
2026-05-06 14:16 37.37552 112.74374 37087 ft 497 kts 172°
2026-05-06 14:17 37.30864 112.76601 37100 ft 498 kts 172°
2026-05-06 14:17 37.24169 112.78825 37109 ft 499 kts 172°
2026-05-06 14:18 37.17490 112.81038 37106 ft 498 kts 172°
2026-05-06 14:18 37.10807 112.83248 37102 ft 498 kts 172°
2026-05-06 14:19 37.04103 112.85461 37098 ft 498 kts 172°
2026-05-06 14:19 36.97384 112.87680 37094 ft 499 kts 172°
2026-05-06 14:20 36.90681 112.89892 37092 ft 498 kts 172°
2026-05-06 14:20 36.83984 112.92097 37093 ft 498 kts 172°
2026-05-06 14:21 36.77311 112.94290 37090 ft 497 kts 172°
2026-05-06 14:21 36.70587 112.96494 37088 ft 498 kts 172°
2026-05-06 14:22 36.63913 112.98680 37084 ft 497 kts 172°
2026-05-06 14:22 36.57172 113.00883 37083 ft 498 kts 172°
2026-05-06 14:23 36.50490 113.03063 37082 ft 499 kts 172°
2026-05-06 14:23 36.43773 113.05250 37082 ft 498 kts 172°
2026-05-06 14:24 36.37049 113.07436 37083 ft 498 kts 172°
2026-05-06 14:24 36.30362 113.09531 37079 ft 494 kts 176°
2026-05-06 14:25 36.23585 113.09809 37081 ft 478 kts 193°
2026-05-06 14:25 36.17287 113.07674 37089 ft 466 kts 206°
2026-05-06 14:26 36.11220 113.04733 37088 ft 465 kts 207°
2026-05-06 14:26 36.05232 113.01733 37090 ft 466 kts 207°
2026-05-06 14:27 35.99249 112.98685 37091 ft 465 kts 207°
2026-05-06 14:27 35.93257 112.95609 37091 ft 466 kts 207°
2026-05-06 14:28 35.87293 112.92537 37093 ft 465 kts 207°
2026-05-06 14:28 35.81309 112.89451 37091 ft 466 kts 208°
2026-05-06 14:29 35.75359 112.86371 37087 ft 465 kts 208°
2026-05-06 14:29 35.69395 112.83266 37084 ft 465 kts 208°
2026-05-06 14:30 35.63421 112.80161 37082 ft 465 kts 208°
2026-05-06 14:30 35.57460 112.77066 37081 ft 464 kts 208°
2026-05-06 14:31 35.51530 112.73972 37081 ft 465 kts 208°
2026-05-06 14:31 35.45547 112.70855 37078 ft 465 kts 208°
2026-05-06 14:32 35.39613 112.67768 37076 ft 464 kts 208°
2026-05-06 14:32 35.33652 112.64673 37075 ft 465 kts 208°
2026-05-06 14:33 35.27661 112.61568 37075 ft 465 kts 208°
2026-05-06 14:33 35.21716 112.58491 37072 ft 465 kts 208°
2026-05-06 14:34 35.15734 112.55417 37058 ft 465 kts 208°
2026-05-06 14:34 35.09705 112.52524 37046 ft 468 kts 203°
2026-05-06 14:35 35.03427 112.50201 37033 ft 470 kts 202°
2026-05-06 14:35 34.97184 112.47915 37022 ft 469 kts 202°
2026-05-06 14:36 34.90905 112.45615 37018 ft 469 kts 202°
2026-05-06 14:36 34.84638 112.43323 37020 ft 470 kts 202°
2026-05-06 14:37 34.78406 112.41046 37018 ft 469 kts 202°
2026-05-06 14:37 34.71882 112.39840 37009 ft 484 kts 185°
2026-05-06 14:38 34.65103 112.40305 37016 ft 487 kts 182°
2026-05-06 14:38 34.58319 112.40877 37017 ft 487 kts 182°
2026-05-06 14:39 34.51578 112.41450 37017 ft 486 kts 182°
2026-05-06 14:39 34.44765 112.42030 37018 ft 488 kts 182°
2026-05-06 14:40 34.38003 112.42606 37019 ft 487 kts 182°
2026-05-06 14:40 34.31211 112.43185 37021 ft 486 kts 182°
2026-05-06 14:41 34.24445 112.43761 37023 ft 487 kts 182°
2026-05-06 14:41 34.17672 112.44338 37027 ft 487 kts 182°
2026-05-06 14:42 34.10917 112.44912 37030 ft 487 kts 182°
2026-05-06 14:42 34.04169 112.45484 37034 ft 486 kts 182°
2026-05-06 14:43 33.97406 112.46057 37037 ft 486 kts 182°
2026-05-06 14:43 33.90634 112.46630 37036 ft 488 kts 182°
2026-05-06 14:44 33.83843 112.47203 37037 ft 488 kts 182°
2026-05-06 14:45 33.73721 112.48056 37029 ft 487 kts 182°
2026-05-06 14:45 33.66916 112.48628 37024 ft 487 kts 182°
2026-05-06 14:46 33.60139 112.49204 37022 ft 486 kts 182°
2026-05-06 14:46 33.53359 112.49782 37022 ft 487 kts 182°
2026-05-06 14:47 33.46619 112.50356 37022 ft 487 kts 182°
2026-05-06 14:47 33.39796 112.50935 37018 ft 488 kts 182°
2026-05-06 14:48 33.33055 112.51508 37014 ft 486 kts 182°
2026-05-06 14:48 33.26271 112.52082 37011 ft 487 kts 182°
2026-05-06 14:49 33.19520 112.52653 37008 ft 488 kts 182°
2026-05-06 14:49 33.12756 112.53225 37006 ft 487 kts 182°
2026-05-06 14:50 33.05966 112.53797 37003 ft 487 kts 182°
2026-05-06 14:50 32.99178 112.54369 37002 ft 489 kts 182°
2026-05-06 14:51 32.92432 112.54617 37000 ft 480 kts 192°
2026-05-06 14:51 32.85987 112.52950 37006 ft 470 kts 201°
2026-05-06 14:52 32.79697 112.50840 37002 ft 470 kts 201°
2026-05-06 14:52 32.73307 112.48783 37325 ft 474 kts 201°
2026-05-06 14:52 32.70158 112.47767 37656 ft 472 kts 201°
2026-05-06 14:53 32.66974 112.46738 37967 ft 470 kts 201°
2026-05-06 14:53 32.63794 112.45709 38256 ft 470 kts 201°
2026-05-06 14:53 32.60652 112.44692 38489 ft 470 kts 201°
2026-05-06 14:53 32.57486 112.43665 38709 ft 470 kts 201°
2026-05-06 14:54 32.54342 112.42647 38930 ft 470 kts 201°
2026-05-06 14:54 32.48055 112.40610 38998 ft 470 kts 201°
2026-05-06 14:55 32.41727 112.38562 38998 ft 469 kts 201°
2026-05-06 14:55 32.35422 112.36523 38997 ft 470 kts 201°
2026-05-06 14:56 32.29132 112.34493 39005 ft 469 kts 200°
2026-05-06 14:56 32.22842 112.32464 39009 ft 470 kts 200°
2026-05-06 14:57 32.16539 112.30434 39008 ft 470 kts 200°
2026-05-06 14:57 32.10184 112.28391 39008 ft 470 kts 200°
2026-05-06 14:58 32.03749 112.26761 39006 ft 474 kts 195°
2026-05-06 14:58 31.97259 112.25447 39004 ft 474 kts 195°
2026-05-06 14:59 31.90730 112.24126 39004 ft 474 kts 195°
2026-05-06 14:59 31.84203 112.22806 39009 ft 473 kts 195°
2026-05-06 15:00 31.77719 112.21494 39008 ft 474 kts 195°
2026-05-06 15:00 31.71219 112.20182 39007 ft 473 kts 195°
2026-05-06 15:01 31.64683 112.18864 39007 ft 473 kts 195°
2026-05-06 15:01 31.58200 112.17557 39008 ft 474 kts 195°
2026-05-06 15:02 31.51684 112.16246 39009 ft 473 kts 195°
2026-05-06 15:02 31.45193 112.14941 39009 ft 475 kts 195°
2026-05-06 15:03 31.38676 112.13609 39008 ft 472 kts 197°
2026-05-06 15:03 31.32218 112.12010 39011 ft 472 kts 197°
2026-05-06 15:04 31.25792 112.10416 39013 ft 471 kts 197°
2026-05-06 15:04 31.19379 112.08835 39013 ft 472 kts 197°
2026-05-06 15:05 31.12915 112.07249 39011 ft 472 kts 197°
2026-05-06 15:05 31.06509 112.05682 39009 ft 472 kts 197°
2026-05-06 15:06 31.00055 112.04107 39008 ft 473 kts 197°
2026-05-06 15:06 30.93598 112.02535 39006 ft 473 kts 197°
2026-05-06 15:07 30.87142 112.00965 39009 ft 472 kts 197°
2026-05-06 15:07 30.80726 111.99407 39006 ft 471 kts 197°
2026-05-06 15:08 30.74254 111.97838 39006 ft 472 kts 197°
2026-05-06 15:08 30.67819 111.96280 39004 ft 473 kts 197°
2026-05-06 15:09 30.61389 111.94732 39004 ft 473 kts 197°
2026-05-06 15:09 30.54933 111.93182 39003 ft 473 kts 197°
2026-05-06 15:10 30.48504 111.91641 39001 ft 472 kts 197°
2026-05-06 15:10 30.42084 111.90104 39000 ft 472 kts 197°
2026-05-06 15:11 30.35604 111.88554 39000 ft 472 kts 197°
2026-05-06 15:11 30.29184 111.87020 39000 ft 473 kts 197°
2026-05-06 15:12 30.22743 111.85484 38998 ft 473 kts 197°
2026-05-06 15:12 30.16295 111.83948 38997 ft 471 kts 197°
2026-05-06 15:13 30.09829 111.82410 38998 ft 472 kts 197°
2026-05-06 15:13 30.03406 111.80884 38997 ft 473 kts 197°
2026-05-06 15:14 29.96944 111.79351 38995 ft 472 kts 197°
2026-05-06 15:14 29.90486 111.77821 38995 ft 472 kts 197°
2026-05-06 15:15 29.84064 111.76301 39000 ft 473 kts 197°
2026-05-06 15:15 29.77605 111.74774 38997 ft 473 kts 197°
2026-05-06 15:16 29.71142 111.73249 38997 ft 471 kts 197°
2026-05-06 15:16 29.64727 111.71737 38997 ft 472 kts 197°
2026-05-06 15:17 29.58253 111.70213 38998 ft 473 kts 197°
2026-05-06 15:17 29.51826 111.68702 38997 ft 472 kts 197°
2026-05-06 15:18 29.45375 111.67187 38997 ft 473 kts 197°
2026-05-06 15:18 29.38927 111.65675 38997 ft 473 kts 197°
2026-05-06 15:19 29.32357 111.64677 39001 ft 479 kts 189°
2026-05-06 15:19 29.25711 111.64318 38997 ft 479 kts 188°
2026-05-06 15:20 29.19005 111.63966 38997 ft 480 kts 188°
2026-05-06 15:20 29.12321 111.63613 38996 ft 480 kts 188°
2026-05-06 15:21 29.05666 111.63263 38995 ft 481 kts 188°
2026-05-06 15:21 28.98978 111.62910 38994 ft 480 kts 188°
2026-05-06 15:22 28.92302 111.62560 38995 ft 479 kts 188°
2026-05-06 15:22 28.85603 111.62207 39002 ft 480 kts 188°
2026-05-06 15:23 28.78959 111.61603 39003 ft 478 kts 192°
2026-05-06 15:23 28.72331 111.60851 39004 ft 477 kts 192°
2026-05-06 15:24 28.65735 111.60117 39006 ft 478 kts 191°
2026-05-06 15:24 28.59097 111.59390 39006 ft 477 kts 191°
2026-05-06 15:25 28.52519 111.58673 39007 ft 477 kts 191°
2026-05-06 15:25 28.45897 111.57954 39010 ft 478 kts 191°
2026-05-06 15:26 28.39244 111.57240 39018 ft 478 kts 191°
2026-05-06 15:26 28.32633 111.56539 39025 ft 478 kts 191°
2026-05-06 15:27 28.26020 111.55840 39032 ft 477 kts 191°
2026-05-06 15:27 28.19378 111.55137 39035 ft 476 kts 191°
2026-05-06 15:28 28.12756 111.54437 39038 ft 477 kts 191°
2026-05-06 15:28 28.06148 111.53740 39040 ft 478 kts 191°
2026-05-06 15:29 27.99528 111.53043 39041 ft 478 kts 191°
2026-05-06 15:29 27.92904 111.52347 39038 ft 477 kts 191°
2026-05-06 15:30 27.86253 111.51650 39042 ft 478 kts 191°
2026-05-06 15:30 27.79631 111.50957 39041 ft 477 kts 191°
2026-05-06 15:31 27.73004 111.50263 39040 ft 477 kts 191°
2026-05-06 15:31 27.66393 111.49573 39038 ft 478 kts 191°
2026-05-06 15:32 27.56462 111.48537 39033 ft 478 kts 191°
2026-05-06 15:32 27.49831 111.47847 39031 ft 477 kts 191°
2026-05-06 15:33 27.43160 111.47153 39027 ft 477 kts 191°
2026-05-06 15:33 27.36520 111.46463 39023 ft 477 kts 191°
2026-05-06 15:34 27.29898 111.45776 39019 ft 478 kts 191°
2026-05-06 15:34 27.23302 111.45093 39014 ft 477 kts 191°
2026-05-06 15:35 27.16665 111.44405 39012 ft 477 kts 191°
2026-05-06 15:35 27.10014 111.43717 39012 ft 478 kts 191°
2026-05-06 15:36 27.03401 111.43041 39006 ft 478 kts 189°
2026-05-06 15:36 26.96677 111.43685 39004 ft 495 kts 172°
2026-05-06 15:37 26.90243 111.46652 39008 ft 512 kts 155°
2026-05-06 15:37 26.84694 111.51882 39017 ft 529 kts 136°
2026-05-06 15:38 26.80155 111.58408 39021 ft 533 kts 133°
2026-05-06 15:38 26.75683 111.64955 39017 ft 531 kts 133°
2026-05-06 15:39 26.71154 111.71538 39015 ft 532 kts 133°
2026-05-06 15:39 26.66605 111.78116 39106 ft 533 kts 133°
2026-05-06 15:40 26.62085 111.84632 39110 ft 531 kts 133°
2026-05-06 15:40 26.57544 111.91159 39115 ft 533 kts 133°
2026-05-06 15:41 26.53001 111.97678 39119 ft 532 kts 133°
2026-05-06 15:41 26.48456 112.04188 39123 ft 532 kts 133°
2026-05-06 15:42 26.43908 112.10690 39120 ft 530 kts 133°
2026-05-06 15:42 26.39352 112.17193 39120 ft 532 kts 133°
2026-05-06 15:43 26.34615 112.23486 39118 ft 524 kts 142°
2026-05-06 15:43 26.28800 112.28174 39120 ft 509 kts 159°
2026-05-06 15:44 26.22285 112.31137 39127 ft 500 kts 166°
2026-05-06 15:44 26.15718 112.33819 39128 ft 501 kts 166°
2026-05-06 15:45 26.09150 112.36497 39130 ft 502 kts 166°
2026-05-06 15:45 26.02585 112.39171 39130 ft 500 kts 166°
2026-05-06 15:46 25.96026 112.41838 39130 ft 502 kts 166°
2026-05-06 15:46 25.89458 112.44508 39126 ft 500 kts 166°
2026-05-06 15:47 25.82920 112.47160 39127 ft 501 kts 166°
2026-05-06 15:47 25.76335 112.49829 39122 ft 500 kts 166°
2026-05-06 15:48 25.69761 112.52491 39123 ft 500 kts 166°
2026-05-06 15:48 25.63181 112.55151 39133 ft 501 kts 166°
2026-05-06 15:49 25.56618 112.57802 39145 ft 501 kts 166°
2026-05-06 15:49 25.50019 112.60465 39160 ft 502 kts 166°
2026-05-06 15:50 25.43499 112.63092 39164 ft 501 kts 166°
2026-05-06 15:50 25.36896 112.65749 39149 ft 502 kts 166°
2026-05-06 15:51 25.30377 112.68370 39138 ft 500 kts 166°
2026-05-06 15:51 25.23912 112.70972 38741 ft 484 kts 166°
2026-05-06 15:52 25.20757 112.72240 38156 ft 482 kts 167°
2026-05-06 15:52 25.17597 112.73507 37397 ft 483 kts 167°
2026-05-06 15:52 25.14438 112.74772 36587 ft 486 kts 167°
2026-05-06 15:52 25.11263 112.76043 35756 ft 488 kts 167°
2026-05-06 15:53 25.08048 112.77329 34886 ft 490 kts 167°
2026-05-06 15:53 25.04835 112.78612 33910 ft 494 kts 167°
2026-05-06 15:53 25.01594 112.79906 32870 ft 498 kts 167°
2026-05-06 15:53 24.98311 112.81216 31885 ft 501 kts 166°
2026-05-06 15:54 24.95048 112.82521 31223 ft 496 kts 166°
2026-05-06 15:54 24.91801 112.83820 30716 ft 488 kts 166°
2026-05-06 15:54 24.88659 112.85076 30172 ft 483 kts 166°
2026-05-06 15:54 24.85470 112.86349 29542 ft 479 kts 166°
2026-05-06 15:55 24.82336 112.87599 28926 ft 475 kts 166°
2026-05-06 15:55 24.79223 112.88840 28251 ft 472 kts 166°
2026-05-06 15:55 24.76143 112.90067 27644 ft 468 kts 166°
2026-05-06 15:55 24.73071 112.91290 27050 ft 464 kts 166°
2026-05-06 15:56 24.70070 112.92484 26449 ft 461 kts 166°
2026-05-06 15:56 24.67067 112.93677 25844 ft 457 kts 166°
2026-05-06 15:56 24.64054 112.94875 25221 ft 454 kts 165°
2026-05-06 15:56 24.61097 112.96049 24596 ft 451 kts 165°
2026-05-06 15:57 24.58166 112.97212 23965 ft 448 kts 165°
2026-05-06 15:57 24.55239 112.98373 23369 ft 444 kts 165°
2026-05-06 15:57 24.52342 112.99521 22748 ft 441 kts 165°
2026-05-06 15:57 24.49454 113.00665 22185 ft 436 kts 165°
2026-05-06 15:58 24.46611 113.01790 21608 ft 432 kts 165°
2026-05-06 15:58 24.43795 113.02904 21055 ft 428 kts 165°
2026-05-06 15:58 24.40999 113.04008 20483 ft 424 kts 165°
2026-05-06 15:58 24.38234 113.05022 19915 ft 417 kts 169°
2026-05-06 15:59 24.35427 113.05810 19323 ft 414 kts 170°
2026-05-06 15:59 24.32625 113.06570 18505 ft 416 kts 170°
2026-05-06 15:59 24.29808 113.07331 17744 ft 417 kts 170°
2026-05-06 15:59 24.27023 113.08085 17129 ft 414 kts 170°
2026-05-06 16:00 24.24226 113.08843 16516 ft 410 kts 170°
2026-05-06 16:00 24.21464 113.09590 15899 ft 407 kts 170°
2026-05-06 16:00 24.18730 113.10330 15286 ft 405 kts 170°
2026-05-06 16:00 24.16000 113.11069 14681 ft 402 kts 170°
2026-05-06 16:01 24.13279 113.11804 14070 ft 399 kts 170°
2026-05-06 16:01 24.10595 113.12529 13463 ft 396 kts 170°
2026-05-06 16:01 24.07910 113.13254 12870 ft 394 kts 170°
2026-05-06 16:01 24.05292 113.13961 12308 ft 390 kts 170°
2026-05-06 16:02 24.02635 113.14676 12040 ft 386 kts 170°
2026-05-06 16:02 24.00032 113.15366 12018 ft 388 kts 170°
2026-05-06 16:02 23.97393 113.16067 12014 ft 388 kts 170°
2026-05-06 16:02 23.94723 113.16775 12013 ft 389 kts 170°
2026-05-06 16:03 23.92084 113.17476 12005 ft 388 kts 170°
2026-05-06 16:03 23.89481 113.18168 11738 ft 381 kts 170°
2026-05-06 16:03 23.86892 113.18855 11103 ft 381 kts 170°
2026-05-06 16:03 23.84339 113.19532 10497 ft 380 kts 170°
2026-05-06 16:04 23.81763 113.20215 9948 ft 376 kts 170°
2026-05-06 16:04 23.79227 113.20887 9395 ft 374 kts 170°
2026-05-06 16:04 23.76688 113.21560 8856 ft 370 kts 169°
2026-05-06 16:04 23.74183 113.22223 8323 ft 367 kts 169°
2026-05-06 16:05 23.71711 113.22877 7793 ft 364 kts 169°
2026-05-06 16:05 23.69252 113.23521 7255 ft 361 kts 171°
2026-05-06 16:05 23.66805 113.23796 7041 ft 344 kts 183°
2026-05-06 16:05 23.64480 113.23552 6981 ft 324 kts 192°
2026-05-06 16:06 23.62299 113.23161 6934 ft 315 kts 192°
2026-05-06 16:06 23.60152 113.22765 6929 ft 312 kts 193°
2026-05-06 16:06 23.58014 113.22345 6929 ft 311 kts 193°
2026-05-06 16:06 23.55869 113.21912 6912 ft 304 kts 193°
2026-05-06 16:07 23.53850 113.21501 6883 ft 290 kts 193°
2026-05-06 16:07 23.51880 113.21098 6824 ft 277 kts 193°
2026-05-06 16:07 23.49980 113.20707 6557 ft 274 kts 193°
2026-05-06 16:07 23.48111 113.20311 6214 ft 274 kts 194°
2026-05-06 16:08 23.46235 113.19912 5890 ft 273 kts 193°
2026-05-06 16:08 23.44357 113.19514 5570 ft 272 kts 193°
2026-05-06 16:08 23.42477 113.19117 5251 ft 272 kts 193°
2026-05-06 16:08 23.40616 113.18724 4933 ft 271 kts 193°
2026-05-06 16:09 23.38770 113.18334 4567 ft 270 kts 193°
2026-05-06 16:09 23.36926 113.17945 4051 ft 268 kts 192°
2026-05-06 16:09 23.35087 113.17557 3539 ft 267 kts 192°
2026-05-06 16:09 23.33281 113.17178 3034 ft 266 kts 191°
2026-05-06 16:10 23.31454 113.16796 2559 ft 263 kts 192°
2026-05-06 16:10 23.29702 113.16425 2352 ft 250 kts 191°
2026-05-06 16:10 23.28030 113.16073 2265 ft 232 kts 191°
2026-05-06 16:10 23.26509 113.15752 2212 ft 213 kts 191°
2026-05-06 16:11 23.25096 113.15693 2141 ft 196 kts 163°
2026-05-06 16:11 23.24001 113.16474 2037 ft 189 kts 124°
2026-05-06 16:11 23.23487 113.17789 2028 ft 190 kts 107°
2026-05-06 16:11 23.23101 113.19168 2024 ft 189 kts 107°
2026-05-06 16:12 23.22738 113.20554 2018 ft 189 kts 98°
2026-05-06 16:12 23.22944 113.21924 2008 ft 188 kts 59°
2026-05-06 16:12 23.23868 113.22932 2019 ft 189 kts 32°
2026-05-06 16:12 23.25108 113.23298 2009 ft 188 kts 354°
2026-05-06 16:13 23.26407 113.23452 1916 ft 189 kts 23°
2026-05-06 16:13 23.27481 113.24284 1871 ft 187 kts 43°
2026-05-06 16:13 23.28554 113.25075 1975 ft 191 kts 17°
2026-05-06 16:13 23.29876 113.25338 1716 ft 189 kts 10°
2026-05-06 16:14 23.31119 113.25651 1464 ft 178 kts 15°
2026-05-06 16:14 23.32253 113.25973 1235 ft 167 kts 13°
2026-05-06 16:14 23.33322 113.26256 1010 ft 150 kts 13°
2026-05-06 16:14 23.34338 113.26532 816 ft 146 kts 13°
2026-05-06 16:15 23.35332 113.26798 622 ft 144 kts 13°
2026-05-06 16:15 23.36301 113.27058 428 ft 144 kts 13°
2026-05-06 16:15 23.37285 113.27324 238 ft 143 kts 13°
2026-05-06 16:15 23.38261 113.27588 67 ft 142 kts 12°
2026-05-06 16:16 23.39129 113.27816 58 ft 109 kts 14°
2026-05-06 16:16 23.39727 113.27975 58 ft 66 kts 14°
2026-05-06 16:16 23.40055 113.28067 58 ft 36 kts 17°
2026-05-06 16:16 23.40242 113.28161 58 ft 22 kts 36°
2026-05-06 16:17 23.40348 113.28252 57 ft 18 kts 39°
2026-05-06 16:17 23.40435 113.28326 58 ft 5 kts 38°
2026-05-06 16:17 23.40476 113.28350 58 ft 8 kts 19°
2026-05-06 16:17 23.40564 113.28375 58 ft 15 kts 13°
2026-05-06 16:18 23.40668 113.28404 58 ft 14 kts 14°
2026-05-06 16:18 23.40767 113.28432 58 ft 14 kts 14°
2026-05-06 16:18 23.40863 113.28458 58 ft 13 kts 14°
2026-05-06 16:18 23.40921 113.28536 58 ft 16 kts 95°
2026-05-06 16:19 23.40886 113.28674 58 ft 20 kts 106°
2026-05-06 16:19 23.40853 113.28816 58 ft 19 kts 103°
2026-05-06 16:19 23.40925 113.28923 58 ft 21 kts 12°
2026-05-06 16:19 23.41081 113.28960 58 ft 23 kts 14°
2026-05-06 16:20 23.41235 113.29002 58 ft 22 kts 13°
2026-05-06 16:20 23.41380 113.29041 58 ft 20 kts 14°
2026-05-06 16:20 23.41517 113.29078 58 ft 19 kts 13°
2026-05-06 16:20 23.41654 113.29116 58 ft 20 kts 18°
2026-05-06 16:21 23.41756 113.29215 58 ft 20 kts 73°
2026-05-06 16:21 23.41743 113.29368 58 ft 20 kts 104°
2026-05-06 16:21 23.41707 113.29520 58 ft 18 kts 103°
2026-05-06 16:21 23.41653 113.29611 58 ft 13 kts 168°
2026-05-06 16:22 23.41571 113.29604 58 ft 11 kts 194°
2026-05-06 16:22 23.41488 113.29579 58 ft 13 kts 195°
2026-05-06 16:22 23.41395 113.29552 58 ft 14 kts 194°
2026-05-06 16:22 23.41293 113.29525 58 ft 15 kts 193°
2026-05-06 16:23 23.41196 113.29501 58 ft 13 kts 193°
2026-05-06 16:23 23.41110 113.29486 58 ft 11 kts 179°
2026-05-06 16:23 23.41029 113.29497 58 ft 12 kts 171°
2026-05-06 16:23 23.40962 113.29509 58 ft 5 kts 176°
2026-05-06 16:24 23.40893 113.29497 58 ft 15 kts 194°
2026-05-06 16:24 23.40772 113.29464 58 ft 12 kts 193°
2026-05-06 16:24 23.40741 113.29456 58 ft 1 kts 192°
2026-05-06 16:24 23.40691 113.29477 58 ft 11 kts 127°
2026-05-06 16:25 23.40662 113.29558 58 ft 11 kts 104°
2026-05-06 16:25 23.40643 113.29645 58 ft 11 kts 103°
2026-05-06 16:25 23.40623 113.29731 58 ft 11 kts 103°
2026-05-06 16:25 23.40601 113.29825 58 ft 13 kts 104°
2026-05-06 16:26 23.40574 113.29936 58 ft 16 kts 104°
2026-05-06 16:26 23.40544 113.30064 58 ft 17 kts 104°
2026-05-06 16:27 23.40460 113.30436 58 ft 16 kts 104°
2026-05-06 16:27 23.40433 113.30553 58 ft 15 kts 104°
2026-05-06 16:27 23.40407 113.30666 58 ft 15 kts 104°
2026-05-06 16:27 23.40382 113.30777 58 ft 14 kts 104°
2026-05-06 16:28 23.40342 113.30859 58 ft 11 kts 152°
2026-05-06 16:28 23.40265 113.30859 58 ft 11 kts 194°
2026-05-06 16:28 23.40188 113.30837 58 ft 11 kts 195°
2026-05-06 16:28 23.40107 113.30814 58 ft 12 kts 194°
2026-05-06 16:29 23.40018 113.30790 58 ft 14 kts 194°
2026-05-06 16:29 23.39920 113.30765 58 ft 9 kts 193°
2026-05-06 16:29 23.39866 113.30722 58 ft 10 kts 252°
2026-05-06 16:29 23.39877 113.30628 58 ft 14 kts 284°
2026-05-06 16:30 23.39875 113.30524 58 ft 14 kts 237°
2026-05-06 16:30 23.39843 113.30485 58 ft 5 kts 225°
2026-05-06 16:30 23.39812 113.30452 58 ft 1 kts 224°
2026-05-06 16:30 23.39811 113.30451 58 ft 0 kts 224°